Long Range Forecast for Catacol on the Isle of Arran


Warning: file_get_contents(http://api.webcams.travel/rest?method=wct.webcams.list_nearby&devid=16aa981f7a2bc7410759a4996c6608a6&lat=&lng=&per_page=25&page=1&format=php): failed to open stream: HTTP request failed! HTTP/1.0 404 Not Found in /var/www/vhosts/fajja.co.uk/fajja.co.uk/awx_cumulus/yrtest/scripts/yr_xmlII.php on line 482

Warning: count(): Parameter must be an array or an object that implements Countable in /var/www/vhosts/fajja.co.uk/fajja.co.uk/awx_cumulus/yrtest/scripts/yr_xmlII.php on line 484

Last update: 07.12.2019 01:19
Next update: 07.12.2019 07:30
Latitude: 55.7° N
Longitude: 5.33° W
Altitude: 134 m

hPa
mm °C
    Temperature Precipitation Pressure Wind Humidity Clouds Fog
 05:47     17:54 Today
06:00 0.2 mm 1005.5 hPa 13 mph 93% 98%
07:00 0.1 mm 1005.7 hPa 12 mph 92% 93%
08:00 0.1 mm 1005.3 hPa 12 mph 94% 99%
09:00 0.2 mm 1005.2 hPa 12 mph 94% 100%
10:00 0.1 mm 1004.8 hPa 12 mph 93% 99%
11:00 0.1 mm 1004.4 hPa 12 mph 93% 100%
12:00 0.5 mm 1003.2 hPa 12 mph 93% 100%
13:00 1.4 mm 1001.9 hPa 12 mph 93% 100%
14:00 2.9 mm 1000.7 hPa 13 mph 94% 100%
15:00 0.5 mm 999.4 hPa 14 mph 94% 100%
16:00 1.4 mm 998.1 hPa 15 mph 94% 100%
17:00 0.5 mm 996.9 hPa 17 mph 94% 100%
18:00   995.3 hPa 19 mph 93% 100%
19:00 0.5 mm 993.1 hPa 19 mph 92% 100%
20:00 1.5 mm 990.4 hPa 21 mph 92% 100%
21:00 1.8 mm 987.9 hPa 23 mph 92% 100%
22:00 3.1 mm 985.7 hPa 23 mph 91% 100%
23:00 1.3 mm 983.9 hPa 23 mph 91% 100%
 05:48     17:55 Tomorrow
00:00 2.5 mm 985.1 hPa 28 mph 84% 100%
01:00 0.5 mm 985.6 hPa 25 mph 84% 44%
02:00 0.1 mm 985.7 hPa 25 mph 74% 23%
03:00 0.1 mm 985.7 hPa 25 mph 70% 47%
04:00 0.6 mm 985.7 hPa 27 mph 81% 51%
05:00 0.7 mm 985.8 hPa 26 mph 88% 82%
06:00 0.7 mm 985.7 hPa 26 mph 89% 97%
07:00 0.8 mm 985.4 hPa 26 mph 87% 79%
08:00 0.6 mm 984.8 hPa 26 mph 86% 93%
09:00 0.5 mm 984.3 hPa 25 mph 85% 78%
10:00 0.3 mm 983.5 hPa 26 mph 84% 74%
11:00 0.2 mm 982.6 hPa 25 mph 83% 88%
12:00 0.2 mm 981.3 hPa 26 mph 82% 89%
13:00 0.1 mm 979.8 hPa 26 mph 79% 86%
14:00 0.4 mm 978.6 hPa 28 mph 82% 99%
15:00 0.6 mm 977.9 hPa 27 mph 86% 100%
16:00 1.2 mm 977.4 hPa 26 mph 90% 98%
17:00 0.7 mm 976.9 hPa 24 mph 91% 100%
18:00 0.9 mm 976.5 hPa 23 mph 92% 100%
19:00 0.5 mm 976.4 hPa 21 mph 92% 99%
20:00 0.8 mm 976.7 hPa 17 mph 91% 98%
21:00 1.0 mm 977.1 hPa 18 mph 90% 100%
22:00 0.5 mm 977.6 hPa 19 mph 86% 100%
23:00 0.6 mm 977.9 hPa 26 mph 88% 100%
 05:48     17:55 09.12.2019
00:00 0.4 mm 978.9 hPa 33 mph 83% 63%
01:00   982.1 hPa 34 mph 80% 67%
02:00   985.5 hPa 34 mph 78% 73%
03:00   988.0 hPa 36 mph 76% 73%
04:00   990.4 hPa 37 mph 73% 82%
05:00   994.2 hPa 34 mph 79% 79%
06:00   997.8 hPa 28 mph 78% 56%
07:00   1001.0 hPa 26 mph 77% 20%
08:00   1003.6 hPa 23 mph 78% 16%
09:00   1006.1 hPa 21 mph 73% 11%
10:00   1008.5 hPa 18 mph 72% 10%
11:00   1010.2 hPa 17 mph 68% 9%
12:00   1011.3 hPa 15 mph 67% 2%
13:00   1012.3 hPa 14 mph 67% 4%
14:00   1013.0 hPa 13 mph 67% 24%
15:00   1013.6 hPa 9 mph 67% 33%
16:00   1013.8 hPa 6 mph 75% 10%
17:00   1014.1 hPa 6 mph 76% 98%
18:00   1014.3 hPa 5 mph 78% 100%
 05:49     17:56 10.12.2019
00:00   1011.2 hPa 15 mph 84% 100%
06:00 4.0 mm 997.7 hPa 24 mph 90% 100%
12:00 8.0 mm 984.7 hPa 20 mph 92% 100%
18:00 7.8 mm 985.7 hPa 26 mph 86% 68%
 05:49     17:56 11.12.2019
00:00 3.5 mm 990.6 hPa 24 mph 76% 43%
06:00 2.7 mm 989.5 hPa 21 mph 87% 88%
12:00 1.9 mm 989.1 hPa 20 mph 93% 92%
18:00 3.9 mm 989.4 hPa 20 mph 96% 98%
 05:50     17:57 12.12.2019
00:00 2.3 mm 987.3 hPa 19 mph 89% 98%
06:00 6.5 mm 982.9 hPa 8 mph 92% 100%
12:00 0.5 mm 983.9 hPa 10 mph 76% 41%
18:00 0.5 mm 988.0 hPa 12 mph 91% 49%
 05:50     17:57 13.12.2019
00:00   992.0 hPa 6 mph 86% 14%
06:00   989.3 hPa 9 mph 94% 100%
12:00 7.0 mm 981.7 hPa 24 mph 86% 68%
18:00 4.5 mm 980.2 hPa 21 mph 90% 84%
 05:50     17:58 14.12.2019
00:00 3.8 mm 979.4 hPa 28 mph 83% 67%
06:00 3.8 mm 982.0 hPa 25 mph 75% 78%
12:00 5.6 mm 984.1 hPa 32 mph 87% 83%
18:00 5.6 mm 984.9 hPa 26 mph 91% 97%
 05:51     17:58 15.12.2019
00:00 4.3 mm 987.4 hPa 22 mph 97% 98%
06:00 2.0 mm 989.3 hPa 19 mph 94% 97%
12:00 2.3 mm 991.2 hPa 19 mph 88% 98%
18:00 0.3 mm 991.4 hPa 11 mph 81% 88%
 05:51     17:59 16.12.2019
00:00   990.6 hPa 7 mph 83% 99%
06:00 1.3 mm 990.4 hPa 13 mph 94% 99%